Content
SEND FEEDBACK

Daily
Averages
Monthly
Summary
United States of America

RALEIGH, NORTH CAROLINA


Home > North America > United States > North Carolina
Elevation: 376 feet     Latitude: 35 52N     Longitude: 078 47W

WEATHER
 
SELECT A DAY
Number of Records: 195,945;   Date Range: 1/1/95 - 10/24/14
 
SHARE

PRINT THIS DATA

[ ← Previous Day ]
WEATHER ALMANAC - JANUARY 20, 2014
[ Next Day → ]
[ °C ]   °F
Weather ElementAverageHighLow
Temperature45.3 °F63 °F (2:51 pm)30 °F (6:51 am)
Dewpoint25.8 °F28 °F (10:51 am)24.1 °F (1:51 am)
Humidity50.5 %79 % (6:51 am)24 % (2:51 pm)
Barometer29.85 in29.89 in (1:51 am)29.78 in (2:51 pm)
Wind Speed8.3 mph17.3 mph (1:51 pm)
Wind Gust20.7 mph (2:51 pm)
Weather ElementAverage
Visibility10 mi
Wind DirectionSSW (201.3 °)

Weather ElementTotal
Precipitation---
Heating Degree Days18.5 (Base 65)
Averaged from 23 records on January 20, 2014
WEATHER CONDITIONS BREAKOUT
WIND DIRECTION BREAKOUT
WEATHER BY HOUR - JANUARY 20, 2014
[ °C ]   °F
Local TimeTemperatureDewpointHumidityBarometerVisibilityWind DirectionWind SpeedGust SpeedPrecipitationEventsConditions
1:51 AM33.1 °F24.1 °F70 %29.89 in10.0 miSW (230°)9.2 mphClear
2:51 AM34.0 °F25.0 °F70 %29.89 in10.0 miSW (230°)9.2 mphClear
3:51 AM35.1 °F25.0 °F67 %29.89 in10.0 miWSW (240°)6.9 mphClear
4:51 AM33.1 °F25.0 °F72 %29.88 in10.0 miSW (220°)6.9 mphClear
5:51 AM32.0 °F25.0 °F75 %29.88 in10.0 miSW (230°)9.2 mphClear
6:51 AM30.0 °F24.1 °F79 %29.88 in10.0 miSW (230°)6.9 mphClear
7:51 AM32.0 °F25.0 °F75 %29.89 in10.0 miWSW (240°)8.1 mphPartly Cloudy
8:51 AM37.0 °F27.0 °F67 %29.89 in10.0 miSW (230°)11.5 mphPartly Cloudy
9:51 AM42.1 °F27.0 °F55 %29.88 in10.0 miSW (220°)11.5 mphPartly Cloudy
10:51 AM48.0 °F28.0 °F46 %29.88 in10.0 miSW (220°)10.4 mphPartly Cloudy
11:51 AM53.1 °F27.0 °F37 %29.84 in10.0 miSW (230°)10.4 mphPartly Cloudy
12:51 PM57.9 °F26.1 °F30 %29.81 in10.0 miWSW (250°)12.7 mphPartly Cloudy
1:51 PM61.0 °F27.0 °F27 %29.79 in10.0 miSW (230°)17.3 mphPartly Cloudy
2:51 PM63.0 °F25.0 °F24 %29.78 in10.0 miWSW (250°)12.7 mph20.7 mphPartly Cloudy
3:51 PM63.0 °F25.0 °F24 %29.80 in10.0 miSW (230°)12.7 mphPartly Cloudy
4:51 PM60.1 °F26.1 °F27 %29.80 in10.0 miWSW (240°)6.9 mphPartly Cloudy
5:51 PM52.0 °F25.0 °F35 %29.82 in10.0 miSW (220°)8.1 mphPartly Cloudy
6:51 PM51.1 °F26.1 °F38 %29.83 in10.0 miSW (230°)6.9 mphPartly Cloudy
7:51 PM48.9 °F26.1 °F41 %29.85 in10.0 miSW (220°)6.9 mphPartly Cloudy
8:51 PM48.0 °F25.0 °F41 %29.86 in10.0 miWSW (240°)5.8 mphPartly Cloudy
9:51 PM45.0 °F26.1 °F48 %29.86 in10.0 miCalmClear
10:51 PM43.0 °F27.0 °F53 %29.85 in10.0 miCalmClear
11:51 PM39.9 °F27.0 °F60 %29.83 in10.0 miCalmClear
Hourly data recorded from KRDU, located miles away from Raleigh, North Carolina







STORIES FROM OUR PARTNERS